Location: De Kooten
(53.2245°N, 6.0848°E)
Time: 04:01:31
(UTC+00:00)

Daily predictions for brighter satellites

Satellite Brightness Start Highest point End
(mag) Time Altitude Azimuth Time Altitude Azimuth Time Altitude Azimuth
Cosmos 1461 3.9 00:01:09 10° NW 00:03:30 34° WNW 00:03:30 34° WNW
Cosmos 1844 Rocket 4.5 00:02:03 10° WNW 00:05:26 17° W 00:05:29 17° W
Cosmos 158 Rocket 4.4 00:05:02 41° W 00:06:15 51° WNW 00:11:13 10° NNE
Cosmos 1943 Rocket 3.0 00:00:49 10° NNW 00:06:20 49° NE 00:10:24 18° ESE
Geosat 4.0 00:06:04 49° SE 00:07:26 78° NE 00:12:29 10° NNW
Lacrosse 4 Rocket 4.0 00:04:46 10° WNW 00:07:31 17° NNW 00:10:16 10° NNE
SL-16 R/B 3.5 00:06:04 17° W 00:09:49 35° NW 00:15:01 10° NNE
ATLAS 5 CENTAUR R/B 2.8 00:06:05 10° NW 00:10:23 46° NNE 00:15:42 10° ESE
Meteor 1-14 Rocket 4.3 00:07:07 10° N 00:12:42 71° ENE 00:14:21 46° SE
RESURS DK-1 3.4 00:13:30 34° E 00:13:30 34° E 00:16:39 10° NE
Cosmos 972 Rocket 4.0 00:12:33 59° SSE 00:13:11 66° ESE 00:18:05 10° NNE
Okean 3 Rocket 3.9 00:10:21 10° N 00:14:51 60° ENE 00:15:30 54° ESE
Cosmos 1867 4.0 00:10:27 10° NW 00:15:26 45° WSW 00:15:26 45° WSW
NOSS 2-2 (D) 3.6 00:13:50 10° NW 00:17:56 76° SW 00:18:12 73° S
USA 32 4.3 00:20:05 49° WSW 00:21:01 57° W 00:26:12 10° N
MOZ.5/SAFIR/RUBIN 5/SL-8 4.5 00:20:50 34° ESE 00:22:28 50° ENE 00:27:04 10° N
CZ-2C R/B 4.3 00:19:02 10° ESE 00:23:34 29° ENE 00:28:01 10° N
SL-16 R/B 4.4 00:19:20 10° ESE 00:24:22 27° NE 00:29:25 10° N
Cosmos 1842 Rocket 4.1 00:27:32 46° ESE 00:28:03 49° E 00:32:22 10° NNE
Cosmos 2344 3.9 00:20:01 10° NW 00:28:07 82° SW 00:39:11 10° SE
Cosmos 192 4.3 00:24:45 10° NNW 00:29:42 81° ENE 00:30:51 53° SE
Aureole 3 Rocket 4.2 00:26:42 10° NNW 00:29:21 26° WNW 00:29:21 26° WNW
Tsikada Rocket 4.1 00:30:35 43° SW 00:32:28 62° WNW 00:38:35 10° N
USA 215 4.1 00:27:21 10° ENE 00:33:01 30° SE 00:34:08 29° SSE
Cosmos 1536 3.4 00:31:12 10° N 00:34:57 47° ENE 00:35:23 45° E
NOSS 3-1 (C) 4.2 00:30:10 10° NW 00:36:56 69° NE 00:45:19 10° ESE
Cosmos 1500 Rocket 4.4 00:33:30 10° N 00:37:48 46° ENE 00:39:12 34° ESE
Lacrosse 5 2.3 00:35:37 19° W 00:39:18 62° NNW 00:44:24 10° ENE
Meteor 1-11 Rocket 4.0 00:34:33 10° N 00:40:04 62° ENE 00:42:35 32° SE
ATLAS 3B R/B 3.7 00:36:09 10° NW 00:43:44 54° NNE 00:51:24 10° ESE
SWAS 4.3 00:40:09 10° NNW 00:44:23 86° NE 00:44:50 71° SE
NOSS 0 Rocket 4.1 00:45:55 42° S 00:47:47 59° ESE 00:53:50 10° NE
NOSS 3-4 (A) 3.9 00:51:31 24° W 00:54:57 55° NNW 01:01:14 10° NE
NOSS 3-4 (C) 3.9 00:51:35 24° W 00:54:59 56° NNW 01:01:17 10° NE
Cosmos 1766 Rocket 4.4 00:52:05 10° NNW 00:55:54 35° W 00:55:54 35° W
H-2A R/B 3.8 00:53:17 10° N 00:56:34 22° WNW 00:57:40 20° W
Gbstr 26 Del rocket 2.8 00:57:32 69° SSW 00:57:45 70° S 01:01:47 10° E
Cosmos 2369 Rocket 3.8 00:54:02 10° NNW 00:59:08 34° NE 01:04:13 10° ESE
Cosmos 2237 Rocket 2.6 00:59:39 38° SSE 01:01:27 53° ESE 01:07:00 10° NE
IDEFIX/ARIANE 42P 3.4 00:56:46 10° NNE 01:01:44 42° E 01:03:55 28° SSE
Cosmos 1980 3.9 01:02:36 40° S 01:04:24 59° ESE 01:09:57 10° NE
CZ-2D R/B 3.2 01:02:33 10° NNE 01:07:35 38° E 01:10:23 23° SSE
USA 267 3.1 01:03:48 10° ESE 01:10:19 80° SSW 01:16:54 10° WNW
Cosmos 1151 Rocket 4.2 01:10:36 25° SE 01:12:19 35° E 01:16:19 10° NNE
Cosmos 1975 4.5 01:08:58 10° N 01:12:24 29° ENE 01:15:11 14° SE
Cosmos 44 Rocket 4.5 01:09:34 20° W 01:12:39 40° NNW 01:17:30 10° NE
USA 308 3.8 01:14:03 29° ESE 01:14:03 29° ESE 01:16:46 10° E
Meteor 2-9 Rocket 4.1 01:09:18 10° NNW 01:14:46 85° ENE 01:17:36 30° SSE
Cosmos 2360 Rocket 3.8 01:10:53 12° W 01:15:03 27° NW 01:19:50 10° NNE
COSMOS 2428 2.9 01:13:37 36° WSW 01:15:53 64° NW 01:21:34 10° NNE
Cosmos 1743 Rocket 3.5 01:11:37 10° N 01:15:58 80° E 01:17:16 45° SSE
Meteor 2-6 Rocket 4.5 01:15:50 38° SW 01:18:01 63° WNW 01:23:51 10° N
Cosmos 1726 2.7 01:15:35 10° NNW 01:17:56 38° NW 01:17:56 38° NW
Resurs 1-4 Rocket 2.8 01:14:30 10° NNE 01:19:39 48° E 01:22:17 26° SSE
Helios 1A Rocket 4.4 01:22:22 22° W 01:22:22 22° W 01:24:56 10° NW
Cosmos 2322 4.3 01:21:01 28° WSW 01:23:43 49° NW 01:29:18 10° NNE
BREEZE-M DEB (TANK) 3.7 01:27:27 17° ESE 01:27:27 17° ESE 01:28:07 10° E
Cosmos 2219 Rocket 3.4 01:23:12 19° W 01:26:28 34° NW 01:31:34 10° NNE
Cosmos 2221 3.9 01:26:50 23° W 01:27:40 25° WNW 01:31:15 10° N
Cosmos 2322 Rocket 4.3 01:27:41 10° WNW 01:31:48 20° NNW 01:35:58 10° NNE
Cosmos 2278 Rocket 2.9 01:26:48 10° NW 01:31:50 33° WSW 01:32:30 32° WSW
USA 290 2.7 01:35:30 10° NNW 01:38:44 60° ENE 01:40:17 27° SE
COBE Rocket 3.9 01:36:25 10° NNE 01:41:04 67° ESE 01:43:14 30° S
Meteor 2-10 4.2 01:35:30 10° NNW 01:41:10 69° W 01:44:15 28° S
Cosmos 1420 Rocket 4.0 01:36:12 10° NNW 01:41:25 63° WSW 01:44:11 28° S
Cosmos 2333 Rocket 4.1 01:38:40 10° W 01:43:07 23° NNW 01:47:35 10° NNE
ADEOS II 2.8 01:38:50 10° NNE 01:43:57 49° E 01:47:24 20° SSE
Cosmos 1680 Rocket 3.6 01:42:34 32° S 01:45:04 72° ESE 01:50:24 10° NNE
Cosmos 2195 Rocket 4.5 01:44:51 26° S 01:48:34 88° ESE 01:54:49 10° N
Cosmos 1943 Rocket 2.7 01:44:46 10° NW 01:50:00 39° WSW 01:51:51 31° SSW
RESURS DK-1 3.4 01:49:06 26° W 01:50:40 35° NW 01:54:27 10° NNE
Meteor 1-28 Rocket 3.3 01:49:06 24° SSE 01:51:08 71° ENE 01:54:46 10° N
Nadezhda 4 Rocket 4.1 01:50:48 29° SW 01:53:53 59° WNW 01:59:57 10° N
ATLAS 2AS CENTAUR R/B 3.1 01:49:36 25° SSW 01:53:59 58° SE 02:00:55 10° NE
ATLAS 5 CENTAUR R/B 2.1 01:49:48 10° NW 01:54:29 52° SW 02:00:14 10° SSE
Cosmos 2056 Rocket 3.6 01:49:46 10° NNW 01:55:05 58° WSW 01:58:37 21° S
Cosmos 1428 Rocket 4.5 01:53:47 27° SSW 01:57:27 77° WNW 02:03:42 10° N
SL-16 R/B 2.9 01:54:58 21° S 01:58:32 48° ESE 02:03:58 10° NE
Sich 1 3.6 01:56:37 10° NNW 02:00:32 37° W 02:01:28 33° WSW
Cosmos 1452 Rocket 4.0 01:56:14 10° NNW 02:01:28 61° ENE 02:06:39 10° SE
GP-B 3.0 01:57:18 10° N 02:01:44 77° W 02:03:57 29° SSW
Cosmos 1340 Rocket 2.9 02:01:32 29° S 02:03:23 71° E 02:07:20 10° NNE
CZ-2C R/B 2.7 02:00:14 23° S 02:03:33 60° W 02:08:47 10° NNW
Meteor 1-27 Rocket 3.8 02:01:01 28° SSW 02:04:07 68° WNW 02:09:43 10° N
Cosmos 1624 Rocket 4.2 01:59:58 10° NW 02:05:01 49° WSW 02:08:03 22° S
GEOS 3 Rocket 3.7 02:00:20 10° SSE 02:05:34 55° SW 02:10:47 10° NW
ALOS 3.3 02:01:56 10° NNE 02:06:22 42° E 02:10:18 12° SSE
Okean 1 3.9 02:05:34 32° WSW 02:06:35 39° WNW 02:10:11 10° N
SL-16 R/B 2.5 02:01:07 10° SSE 02:07:21 82° WSW 02:13:39 10° NNW
NPP 3.8 02:03:42 10° NNE 02:09:04 65° WNW 02:12:10 25° SW
Cosmos 1470 Rocket 4.1 02:05:00 10° N 02:09:23 59° ENE 02:13:47 10° SSE
Cosmos 1340 2.3 02:06:13 10° NNW 02:09:38 68° W 02:10:59 33° S
NOSS 3-1 (A) 3.9 02:03:04 10° NW 02:10:06 82° SW 02:18:45 10° SE
Cosmos 1536 4.4 02:07:55 10° NW 02:10:38 18° W 02:10:41 18° W
Cosmos 1805 3.2 02:08:13 10° NNW 02:11:53 57° W 02:13:21 32° SSW
Cosmos 1733 3.9 02:09:58 10° NNW 02:13:09 30° W 02:13:33 29° WSW
H-2A R/B 4.2 02:12:12 10° N 02:16:00 38° WNW 02:17:41 26° WSW
USA 215 3.3 02:10:10 10° ENE 02:16:44 75° SSE 02:21:28 20° SW
Cosmos 1331 Rocket 4.3 02:13:07 10° NNW 02:18:27 72° ENE 02:23:44 10° SSE
Intercosmos 25 Rocket 3.7 02:15:01 10° NNW 02:18:47 86° W 02:24:34 10° S
USA 229 DEB 4.3 02:12:39 10° NW 02:19:48 67° NE 02:27:41 10° ESE
USA 229 4.3 02:12:45 10° NW 02:19:53 67° NE 02:27:44 10° ESE
COSMOS 2441 4.3 02:16:25 10° NNE 02:21:19 78° WNW 02:24:29 22° SSW
Cosmos 1666 Rocket 3.6 02:17:38 10° NNW 02:22:02 61° W 02:25:08 19° S
Lacrosse 5 2.4 02:17:42 10° WNW 02:22:47 61° N 02:27:52 10° E
Cosmos 1553 Rocket 3.9 02:16:37 10° NNW 02:22:54 81° W 02:29:02 10° S
Cosmos 923 Rocket 4.5 02:20:52 23° WSW 02:23:58 50° WNW 02:29:10 10° NNE
NOSS 3-1 (C) 4.3 02:20:59 10° NW 02:27:50 47° WSW 02:36:02 10° SSE
Cosmos 1674 4.3 02:29:19 10° SSE 02:32:16 28° E 02:35:16 10° NNE
MSX 4.2 02:28:55 10° N 02:34:31 52° WNW 02:38:35 18° SW
Kosmos-1783 3.3 02:34:29 27° NW 02:34:51 30° NNW 02:37:01 10° NE
ATLAS 3B R/B 3.0 02:27:10 10° NW 02:34:56 69° SW 02:42:39 10° SSE
Cosmos 1933 Rocket 4.2 02:31:55 10° N 02:36:14 58° ENE 02:40:29 10° SSE
Cosmos 1656 Rocket 3.7 02:33:48 10° NW 02:39:05 53° WSW 02:44:20 10° S
Cosmos 1470 3.6 02:36:43 10° N 02:40:27 50° ENE 02:44:08 10° SSE
IDEFIX/ARIANE 42P 3.4 02:36:27 10° N 02:41:13 37° WNW 02:44:40 17° WSW
Cosmos 2026 Rocket 4.4 02:37:39 18° SW 02:42:18 51° WNW 02:48:32 10° N
Cosmos 2369 Rocket 2.2 02:37:59 10° NW 02:43:32 62° WSW 02:49:01 10° SSE
Gbstr 26 Del rocket 2.8 02:39:53 10° W 02:44:10 62° SSW 02:47:55 10° ESE
Cosmos 1328 Rocket 3.6 02:41:11 17° SSW 02:44:35 70° WNW 02:49:01 10° N
Cosmos 1626 1.7 02:42:31 18° SSW 02:44:48 83° W 02:48:08 10° N
USA 308 2.5 02:42:30 20° WSW 02:45:03 84° SSE 02:49:00 10° ENE
Cosmos 2237 Rocket 3.1 02:41:27 15° WSW 02:45:44 39° NW 02:51:05 10° NNE
Cosmos 1066 Rocket 4.4 02:40:59 10° S 02:46:26 75° E 02:52:03 10° NNE
Cosmos 1092 Rocket 4.4 02:42:40 17° SW 02:47:09 46° WNW 02:53:07 10° N
CZ-2C R/B 3.3 02:42:14 10° N 02:47:25 60° WNW 02:51:58 15° SW
CZ-2D R/B 2.7 02:42:35 10° N 02:47:40 43° WNW 02:51:41 16° SW
Cosmos 1975 3.7 02:44:54 10° NNW 02:48:19 30° W 02:50:23 18° SW
Cosmos 1151 Rocket 4.1 02:47:21 18° WSW 02:49:51 31° WNW 02:53:45 10° N
SAR-Lupe-1 4.2 02:47:54 10° N 02:51:28 58° WNW 02:54:03 17° SW
Cosmos 921 Rocket 3.4 02:48:29 18° SW 02:51:28 50° WNW 02:55:48 10° NNE
Cosmos 1633 Rocket 3.6 02:47:31 10° NNW 02:51:34 38° W 02:55:02 13° SSW
Cosmos 2297 4.1 02:46:36 10° NW 02:52:01 43° WSW 02:57:25 10° S
AQUA 4.0 02:48:11 10° N 02:52:50 57° WNW 02:56:41 15° SW
USA 267 3.8 02:48:12 10° SSE 02:53:59 33° SW 02:59:48 10° WNW
SAR-Lupe-4 3.9 02:52:11 10° N 02:55:39 49° WNW 02:58:13 16° SW
Cosmos 44 3.5 02:53:16 10° NW 02:58:22 77° NE 03:03:08 10° SE
Resurs 1-4 Rocket 3.0 02:54:35 10° N 02:59:19 34° WNW 03:03:21 13° WSW
Cosmos 1766 3.4 02:59:36 10° NNW 03:03:09 45° W 03:06:41 10° SSW
STPSAT 2 (USA 217) 4.5 02:59:27 10° NNW 03:03:56 75° WSW 03:08:24 10° SSE
Cosmos 494 Rocket 4.0 03:02:00 13° SW 03:06:37 70° WNW 03:11:45 10° NNE
Iridium 51 3.8 03:05:31 10° S 03:08:51 72° W 03:12:21 10° N
Meteor 2-4 Rocket 4.1 03:04:17 12° SW 03:09:08 48° WNW 03:14:40 10° N
FENGYUN 3A 4.1 03:04:15 10° N 03:09:24 46° WNW 03:14:21 11° SW
Cosmos 1943 3.8 03:04:56 10° S 03:10:28 55° ESE 03:16:02 10° NE
Cosmos 2219 Rocket 4.5 03:09:04 10° NW 03:12:12 15° NNW 03:15:20 10° NNE
USA 290 4.2 03:11:19 10° WNW 03:12:45 12° W 03:13:01 12° WSW
Cosmos 2263 4.4 03:07:40 10° NW 03:13:07 51° WSW 03:18:33 10° S
Thor Agena Rocket 4.2 03:08:39 10° NNE 03:13:37 55° ESE 03:18:35 10° S
Cosmos 1048 Rocket 4.0 03:09:36 10° SSW 03:14:53 78° WNW 03:20:08 10° NNE
UNK 4.5 03:11:06 10° SSW 03:15:14 33° W 03:19:25 10° NNW
CZ-2C R/B 2.9 03:14:15 10° NNE 03:19:26 69° ESE 03:24:31 10° S
H-2A R/B 4.1 03:16:29 10° NE 03:20:51 28° E 03:25:17 10° SSE
ADEOS II 3.0 03:18:46 10° N 03:23:25 33° WNW 03:28:04 10° WSW
PAYLOAD A 4.3 03:19:11 10° NNE 03:24:02 65° ESE 03:28:42 10° S
EO 1 Delta rocket 4.4 03:20:39 10° N 03:25:02 43° WNW 03:29:43 10° SW
Cosmos 883 Rocket 4.5 03:20:54 10° NNW 03:27:00 68° W 03:33:03 10° S
Lacrosse 4 Rocket 4.2 03:25:13 10° NNW 03:27:29 14° NNE 03:29:43 10° ENE
Cosmos 1302 Rocket 4.0 03:26:26 10° NNW 03:31:36 67° WSW 03:36:43 10° SSE
IRS-1D 3.8 03:26:30 10° NNE 03:31:41 75° ESE 03:36:55 10° S
Cosmos 1707 2.6 03:28:58 10° SSW 03:32:39 83° WNW 03:36:22 10° N
CZ-4 R/B 3.9 03:27:58 10° N 03:32:40 66° WNW 03:37:15 10° SSW
Meteor 2-10 Rocket 4.2 03:30:27 10° N 03:35:49 65° ENE 03:41:23 10° SSE
Cosmos 1842 3.3 03:33:18 10° SSW 03:36:59 56° WNW 03:40:42 10° N
YAOGAN 6 2.3 03:33:56 10° NNE 03:37:14 88° WNW 03:40:33 10° SSW
ATLAS 5 CENTAUR R/B 3.8 03:35:54 10° W 03:37:48 12° WSW 03:39:49 10° SW
Cosmos 2266 Rocket 4.1 03:34:28 10° SSW 03:40:25 59° WNW 03:46:25 10° N
S3M 4.4 03:34:42 10° NNW 03:40:30 43° W 03:46:20 10° SSW
Cosmos 1603 4.2 03:36:51 10° SSW 03:42:22 63° ESE 03:47:58 10° NE
SL-16 R/B 2.9 03:37:25 10° WSW 03:42:46 42° NW 03:48:10 10° NNE
